Wind_Speed
25 27 31 34 35 35 37 40 41 41 41 42 42 41 41 41 40 40 40 39 38 37 35 34 33 33 33 32 31 30 29 28 27 26 26 25 24 23 22 21 20 19 18 17 15 13 12 12 12 13 14 16 18 19 19 18 17 15 13 12 11 11 12 13 15 15 14 14 13 13 12 12 12 12 12 12 11 10 9 9 8 7 6 5 4 3
25 25 28 31 34 35 36 40 42 43 43 43 42 42 41 40 40 39 38 38 37 36 35 35 34 34 33 32 31 30 29 27 27 26 26 25 24 23 22 21 20 19 17 15 14 12 12 11 12 12 13 15 16 18 19 19 18 16 14 12 11 12 13 14 15 16 15 14 13 13 13 12 12 11 11 11 10 9 9 8 7 6 5 5 4 3
25 24 26 30 33 35 35 39 42 44 45 45 44 43 42 41 39 38 37 37 36 35 35 34 34 34 33 32 31 30 29 27 27 26 26 26 24 23 22 21 20 18 16 14 13 12 12 11 12 12 13 14 15 16 17 18 18 17 15 13 12 13 14 14 14 14 13 13 13 13 13 12 11 10 9 9 8 8 8 7 6 5 5 5 5 3
23 24 26 29 33 35 35 37 40 42 43 44 44 43 42 41 39 38 37 37 36 35 34 33 33 33 33 33 32 30 29 27 27 27 27 26 25 23 22 21 19 17 15 13 13 12 12 12 12 12 13 14 15 15 16 16 17 17 16 15 15 15 15 14 14 13 12 13 13 13 12 11 10 9 8 8 7 7 7 6 5 5 5 6 5 4
21 23 25 27 28 30 32 34 36 38 39 39 39 40 40 40 40 38 38 37 36 35 34 33 33 33 33 33 32 31 29 27 27 27 27 27 26 24 23 21 18 16 14 13 13 12 12 12 12 13 13 14 15 15 16 16 16 17 17 17 17 17 16 16 15 14 14 14 14 13 12 11 9 9 8 8 7 7 7 6 5 5 5 6 6 5
18 21 22 23 23 23 24 27 31 34 33 33 34 36 37 39 40 39 38 37 36 35 34 33 32 33 33 33 32 31 28 27 27 27 28 27 26 24 23 20 17 15 14 14 13 12 12 12 12 13 13 14 15 16 16 16 16 17 17 18 19 19 18 17 17 17 17 16 15 13 12 10 9 9 8 8 7 7 6 5 5 5 6 7 7 6
17 19 19 20 20 21 21 22 27 30 29 28 29 31 34 37 39 39 39 38 37 36 34 33 32 32 33 33 32 30 28 27 27 27 27 26 25 24 22 19 17 16 15 14 13 12 12 12 12 13 14 14 15 16 16 16 16 16 17 18 19 19 19 18 18 18 17 16 15 13 12 11 10 9 9 8 7 7 6 5 4 4 6 8 8 7
15 16 17 18 19 19 19 20 23 27 27 26 27 28 31 33 35 37 38 38 37 36 34 33 32 32 32 32 31 29 28 28 28 28 27 26 24 23 21 20 18 17 16 15 14 12 12 12 12 13 13 14 15 16 17 17 16 16 16 17 18 19 19 18 18 17 17 16 15 14 13 11 11 10 9 8 8 7 6 5 4 4 6 8 9 8
16 16 17 18 18 16 16 15 19 23 25 25 25 26 28 30 31 32 34 35 36 35 35 34 33 32 32 31 30 29 29 29 29 29 28 26 25 23 22 20 19 18 17 15 14 13 12 12 12 12 13 14 15 16 17 17 17 16 16 17 18 18 18 18 17 17 16 16 15 14 13 12 11 10 10 9 8 8 7 5 4 4 5 7 8 8
18 18 16 17 17 17 15 13 15 19 22 22 23 24 26 27 27 27 28 30 33 34 34 34 34 33 32 31 30 30 30 30 30 29 28 27 26 25 23 22 21 19 18 16 14 13 13 12 12 12 13 14 15 16 17 17 17 17 16 16 17 17 18 18 17 17 16 16 15 15 14 13 12 11 10 10 9 8 8 6 5 5 6 7 7 7
16 17 16 15 16 17 16 16 17 19 21 20 20 20 22 24 25 24 23 25 28 30 30 32 34 34 33 32 31 31 31 31 30 29 28 27 26 25 24 23 21 20 18 16 15 14 13 12 12 12 12 13 14 15 16 17 17 17 17 17 17 17 17 17 17 17 17 17 16 15 14 14 13 12 11 11 10 10 9 7 6 5 7 8 8 7
15 16 15 15 15 16 17 18 20 22 21 20 17 16 17 20 23 23 22 23 24 26 26 29 32 33 33 33 32 32 32 31 30 29 28 27 26 25 24 23 21 20 18 17 16 15 14 13 12 12 12 13 14 15 15 16 17 17 17 17 17 17 17 17 17 17 17 17 16 15 15 14 13 13 12 12 11 11 9 8 7 6 8 10 10 8
16 16 15 15 16 16 17 18 20 21 21 20 19 17 17 20 22 22 21 23 24 25 26 28 30 31 33 34 34 33 32 32 31 30 29 28 27 26 25 24 22 21 19 18 17 16 14 13 12 12 12 13 13 14 14 15 16 17 17 18 18 18 17 17 17 17 17 16 16 16 15 14 14 13 13 12 12 11 10 9 8 7 9 11 11 9
14 15 14 14 15 16 17 19 19 19 20 21 22 22 22 23 23 22 21 21 23 25 27 27 28 29 31 32 33 33 33 32 31 30 29 28 28 27 26 25 23 22 21 19 18 17 16 14 13 13 13 13 13 13 14 14 15 16 17 17 18 18 18 18 18 18 17 16 16 16 15 15 14 13 13 13 13 12 11 9 8 9 11 11 11 10
14 14 13 12 13 16 18 20 21 21 22 21 21 21 22 23 23 23 22 20 21 23 25 25 26 26 27 28 30 32 33 32 31 30 29 28 28 27 27 25 24 23 21 21 20 18 17 15 14 13 13 13 13 14 14 14 14 15 15 16 17 18 18 18 18 18 18 17 16 16 16 15 14 14 13 13 13 13 11 10 9 10 12 12 12 12
15 15 13 13 15 17 20 22 22 22 21 20 20 21 22 22 22 23 22 21 21 22 21 19 18 17 19 25 29 31 32 31 30 29 29 28 28 27 27 26 25 24 23 22 21 20 17 15 14 13 14 14 14 14 14 14 14 14 14 15 16 17 17 18 18 18 18 18 17 16 16 15 14 14 14 14 14 13 11 10 10 12 13 13 12 13
16 16 15 16 17 19 22 23 24 24 22 21 22 23 24 24 23 23 22 22 22 20 18 18 13 9 9 16 24 30 32 31 29 28 28 29 29 28 27 27 26 26 24 23 22 20 18 16 14 14 14 14 14 14 14 13 13 13 14 14 15 16 16 17 17 18 18 18 17 16 16 15 14 14 14 14 14 13 11 11 12 13 13 13 13 13
16 17 17 16 17 19 22 23 23 24 24 23 23 24 26 25 24 24 23 23 22 20 18 18 16 11 10 12 20 28 31 31 29 27 26 27 29 29 28 28 27 27 26 24 23 21 18 16 15 15 15 15 15 14 14 13 13 13 13 14 14 15 15 16 16 17 17 17 17 16 16 15 14 14 14 14 13 12 11 12 13 14 13 13 13 14
17 18 18 18 18 19 21 23 24 24 25 25 25 25 24 24 23 23 23 24 24 23 21 19 17 17 16 16 22 30 33 32 29 26 24 24 27 30 29 28 28 27 27 25 24 21 18 17 16 16 16 16 15 14 14 13 13 13 13 13 13 14 14 15 15 15 16 16 17 16 15 15 14 14 14 13 13 12 12 13 13 14 14 13 13 14
18 19 20 20 19 19 20 22 24 25 26 27 27 26 24 24 24 23 23 24 25 25 23 21 19 18 18 19 25 32 35 33 28 24 22 22 26 29 30 29 28 28 27 26 24 22 19 18 17 18 18 17 16 15 14 13 13 12 12 12 13 13 13 14 14 14 15 15 15 15 14 14 14 14 13 13 13 12 13 13 14 14 14 13 13 14
19 19 21 22 21 19 20 23 25 27 28 29 28 27 25 25 24 24 24 24 24 23 22 19 18 18 19 21 25 32 36 34 29 23 20 20 24 28 31 30 29 29 28 27 25 22 20 19 19 19 19 18 17 15 14 13 13 12 12 12 12 12 13 13 14 14 14 14 14 14 13 13 13 14 13 13 13 13 14 14 14 15 15 14 14 14
20 21 22 23 22 22 23 25 26 28 29 30 29 28 26 26 26 25 26 26 24 22 21 19 18 19 20 22 26 31 36 35 30 24 20 17 20 26 31 31 29 28 28 28 26 23 21 20 20 20 20 18 17 15 14 13 13 12 12 12 12 12 13 13 13 14 14 14 13 13 13 13 13 14 14 14 14 14 15 15 15 16 16 15 15 16
22 22 23 24 24 24 24 26 28 30 31 31 31 30 28 29 29 29 29 28 26 24 22 21 20 19 19 20 24 29 34 35 32 27 21 16 17 24 31 31 29 27 27 28 27 25 23 22 21 21 20 19 17 16 14 13 13 12 12 11 11 12 12 13 14 14 14 14 13 13 13 13 14 14 14 15 15 15 16 16 16 16 16 16 16 17
23 23 24 25 24 24 25 27 29 31 32 32 31 28 27 27 29 30 30 30 29 26 25 23 20 17 16 18 21 26 32 35 34 29 22 17 18 25 31 31 29 25 24 27 28 27 25 23 22 22 21 19 17 16 14 14 13 12 12 12 11 11 12 14 15 15 15 14 14 14 14 14 14 14 15 15 16 16 16 16 16 16 16 16 16 17
24 24 24 25 25 24 24 25 29 31 32 31 28 25 22 22 23 25 27 28 27 26 24 20 17 15 16 18 22 26 31 35 35 31 24 17 17 23 30 32 29 24 22 26 28 27 26 25 24 23 22 20 18 16 14 14 13 13 12 12 11 11 12 14 15 16 15 14 14 14 14 14 14 14 14 15 16 17 17 17 17 17 16 16 16 16
23 23 23 23 24 23 22 22 25 28 31 31 28 24 21 20 20 21 23 24 24 24 22 18 14 13 15 18 21 25 30 35 36 33 26 19 16 20 28 32 29 24 21 25 28 28 27 26 25 23 22 21 18 16 14 14 14 13 13 12 12 11 12 14 16 16 15 15 15 15 15 14 14 14 14 15 16 17 17 17 17 17 16 16 16 16
22 22 21 22 22 22 22 21 21 23 27 29 29 26 23 22 21 20 20 22 24 24 21 15 11 9 12 14 16 22 29 33 35 33 28 22 18 19 25 31 30 25 21 23 26 28 28 27 26 24 23 21 20 18 16 15 14 14 13 13 12 12 12 14 16 16 16 15 15 15 15 15 14 14 14 14 16 17 17 18 17 17 17 17 16 16
21 20 20 20 21 21 21 20 20 20 23 26 27 27 25 25 23 21 20 23 25 24 20 16 12 9 9 11 14 19 26 31 34 33 30 24 18 17 24 30 30 25 20 21 24 27 28 27 26 25 24 22 21 19 18 16 15 14 14 14 13 12 13 14 16 16 16 15 15 15 15 15 15 14 14 14 15 16 17 17 17 17 17 17 17 17
19 18 18 18 18 19 20 20 19 19 21 23 26 27 26 26 25 24 24 26 26 23 20 19 16 13 11 12 13 16 21 28 33 34 31 24 17 17 24 29 29 25 21 19 19 21 23 25 25 25 24 23 22 21 20 19 17 15 15 14 13 13 13 14 15 16 16 16 16 16 16 15 15 15 15 15 15 16 16 17 18 18 19 18 18 18
19 18 17 16 17 17 18 18 19 19 20 22 25 26 26 27 26 26 27 28 27 24 21 19 18 16 14 13 10 9 14 24 32 35 33 24 17 17 23 27 28 26 23 18 13 10 14 20 24 26 25 24 23 22 21 21 19 17 16 15 14 14 13 14 15 15 16 16 16 16 16 16 16 15 15 15 15 15 16 17 19 19 19 19 18 18
21 20 19 18 17 17 17 18 19 20 21 23 25 26 27 27 26 25 26 28 29 26 22 20 18 18 18 13 7 4 7 22 32 36 34 26 19 19 24 26 27 28 27 22 12 4 6 13 21 26 26 25 24 23 23 22 21 20 18 17 16 15 14 15 15 15 16 16 17 17 17 17 16 16 16 15 15 16 16 18 19 20 20 20 19 18
24 23 22 21 20 19 19 20 21 22 24 25 26 27 27 26 26 25 26 28 29 28 25 22 21 21 21 18 12 8 9 21 31 36 35 27 21 21 25 26 27 28 29 26 18 9 4 7 16 24 27 26 25 25 24 23 22 21 20 19 18 17 16 15 15 16 16 17 17 17 18 17 17 17 16 16 16 16 16 18 19 19 20 20 20 19
25 25 24 23 23 23 23 23 24 25 26 27 28 28 27 27 26 25 26 27 28 29 28 25 23 22 22 20 17 13 12 20 29 36 37 29 22 20 24 25 26 26 28 27 21 14 8 9 14 20 25 27 27 26 25 24 23 22 21 20 20 19 17 16 16 17 17 17 18 18 18 18 18 17 17 17 17 16 16 17 18 19 19 20 20 20
25 25 25 25 25 25 26 26 27 28 28 28 28 28 28 28 27 26 26 26 27 28 29 29 27 25 23 19 16 14 12 17 26 34 37 34 26 22 24 25 25 25 26 24 19 14 9 12 15 17 20 25 27 27 26 25 24 23 22 21 21 20 18 17 17 18 18 18 19 19 19 19 18 18 18 17 17 17 16 16 17 18 18 19 19 20
24 24 25 26 26 27 27 28 29 29 29 29 29 29 29 29 28 28 26 25 25 27 28 29 29 29 27 22 18 16 15 18 23 30 36 37 31 26 26 25 25 26 25 22 19 14 8 12 17 17 16 19 23 26 27 27 25 24 23 22 22 21 20 19 19 20 20 20 20 20 20 20 20 19 19 18 18 17 16 16 16 17 17 18 18 19
23 23 24 26 27 27 28 29 29 30 30 30 30 29 29 29 29 28 27 26 25 26 27 27 28 28 28 27 24 23 22 23 24 28 34 38 36 31 26 25 27 27 25 23 21 17 13 14 16 18 17 16 16 20 26 28 27 25 24 23 22 22 21 20 21 21 21 21 22 22 22 21 21 20 20 19 18 17 16 16 16 16 17 17 17 18
22 23 24 26 27 28 28 28 29 30 30 32 31 30 30 30 30 29 27 26 26 26 27 27 27 27 26 26 25 25 26 25 25 27 32 37 38 34 27 26 27 29 27 24 22 20 17 14 14 15 16 15 15 17 22 27 28 26 25 24 23 23 22 22 22 22 22 22 22 22 22 22 22 21 20 19 18 17 16 15 15 15 16 16 16 17
22 22 24 26 27 27 28 28 29 30 32 33 33 32 32 31 31 30 28 28 27 27 28 28 27 27 26 25 24 24 23 24 24 25 29 34 37 35 28 26 28 29 29 27 25 23 20 16 13 12 12 15 16 18 23 27 28 27 26 25 24 24 23 23 23 23 23 23 23 22 22 22 22 22 21 20 19 18 17 16 15 14 14 15 15 16
21 22 23 25 26 27 28 27 28 30 32 33 34 33 33 32 31 30 29 29 28 28 28 28 28 27 26 26 24 23 22 21 21 22 25 29 34 35 31 28 28 29 29 28 27 25 23 20 17 14 13 14 15 18 23 27 28 28 27 26 25 25 24 24 24 24 24 24 23 23 23 23 23 22 22 21 21 20 20 19 17 16 15 14 14 15
21 22 23 25 26 26 26 26 27 30 32 34 34 34 33 32 32 31 30 30 29 29 28 28 28 27 26 26 25 23 22 20 19 19 21 24 29 32 33 30 29 29 29 28 26 25 24 22 20 19 19 17 17 18 20 24 27 28 27 24 23 25 27 26 25 25 25 25 25 25 24 23 23 23 23 22 22 21 21 20 19 18 17 16 16 15
21 21 21 23 24 24 24 25 27 30 32 33 34 33 33 32 32 31 31 30 30 29 29 28 28 27 26 25 24 23 22 20 18 17 18 20 24 29 32 31 30 30 30 28 27 26 24 22 20 19 19 19 19 20 21 24 27 28 27 24 24 28 29 28 27 26 26 26 26 26 25 24 24 24 23 23 22 22 21 20 20 19 18 17 17 17
20 20 21 21 22 23 23 25 27 30 31 32 32 33 33 33 33 32 31 30 30 29 29 29 27 26 24 24 23 23 22 20 19 17 17 18 22 27 31 31 31 30 29 28 27 26 25 23 21 20 20 21 19 18 19 23 26 27 26 26 26 27 27 28 28 27 27 26 26 27 26 25 25 24 24 23 23 22 21 20 19 19 18 18 18 17
20 20 21 22 23 24 25 26 27 29 30 31 32 32 33 33 33 33 32 31 30 30 30 29 28 26 24 23 22 21 21 20 19 17 16 17 20 25 29 31 31 30 29 28 27 25 25 23 22 22 23 23 22 20 19 22 24 25 25 26 26 23 19 25 29 30 28 28 27 27 27 27 26 25 24 24 23 22 22 21 20 20 19 19 18 17
19 19 21 22 24 25 26 26 27 29 30 30 30 31 32 33 33 32 32 31 30 30 30 29 28 26 24 23 22 22 21 20 19 18 17 17 20 24 28 30 30 30 29 28 27 25 24 22 21 22 23 23 23 22 21 22 24 24 25 27 28 26 23 25 30 33 30 29 28 28 28 28 27 26 25 24 23 23 22 22 22 21 21 20 19 18
20 20 21 23 24 25 25 26 28 29 30 30 30 30 32 32 32 32 31 30 30 30 30 29 27 24 20 21 22 23 22 22 21 20 19 19 21 24 28 29 30 29 28 28 27 26 25 24 23 23 23 23 23 23 22 23 24 24 24 26 28 28 28 28 32 34 33 31 30 29 29 28 27 27 26 25 24 24 23 23 23 22 22 21 21 20
21 21 22 24 25 26 26 27 28 28 28 28 28 29 31 31 31 31 31 31 30 30 29 29 26 22 18 19 21 23 23 23 23 23 23 23 23 25 27 29 28 27 27 26 26 26 26 27 27 25 23 22 22 23 23 25 26 25 24 25 26 27 27 27 30 33 35 34 32 31 30 29 28 27 27 26 25 24 23 23 23 23 23 23 22 22
22 23 23 24 25 26 26 26 27 27 26 25 26 28 30 30 30 30 30 30 30 29 28 27 25 22 20 21 22 22 22 22 24 25 25 25 26 27 27 28 27 26 25 24 24 23 24 26 27 27 25 23 21 21 23 25 26 27 26 26 26 27 27 27 29 32 36 35 34 32 31 30 29 29 28 27 26 24 23 23 22 22 23 23 23 23
24 24 24 24 24 24 24 25 25 25 24 24 25 26 29 30 29 29 28 28 28 28 26 24 22 20 20 21 23 24 23 23 23 24 25 26 27 27 27 27 26 25 24 23 23 22 22 23 25 26 27 25 23 22 24 25 27 27 28 28 27 27 28 29 30 32 35 35 34 33 32 32 32 31 29 28 26 25 24 23 22 22 22 23 23 24
24 24 24 24 24 23 23 24 25 25 24 23 24 25 27 29 29 28 27 27 27 26 24 22 21 19 19 20 22 23 24 23 24 24 25 26 27 27 26 26 25 23 22 22 21 21 21 21 22 24 25 25 25 25 26 27 27 28 28 28 28 27 28 29 30 31 33 35 35 34 33 32 32 32 30 28 27 26 25 24 23 22 22 22 23 23
25 25 25 25 24 23 24 25 25 25 24 23 24 25 27 27 27 26 27 27 26 25 23 23 22 20 18 19 21 22 22 22 22 22 24 26 27 26 25 25 24 23 21 19 19 18 18 18 19 22 24 24 24 25 27 28 28 28 28 28 28 27 27 29 30 31 32 35 35 34 33 32 31 31 29 28 27 27 26 25 24 23 22 22 22 23
24 25 25 25 25 24 24 25 25 25 24 24 24 25 26 26 25 24 25 25 25 23 22 22 22 20 19 20 21 22 23 23 22 22 23 25 27 27 26 25 25 23 20 16 15 14 13 12 12 15 21 24 24 24 24 27 28 28 26 26 27 27 27 28 30 31 32 33 35 35 34 32 31 30 29 28 26 25 24 25 25 24 23 23 23 23
Wind_Direction
225 223 220 217 215 214 215 215 213 210 209 210 209 210 211 212 212 211 209 207 204 202 200 200 199 197 197 198 199 199 199 201 203 205 208 209 211 213 215 217 219 220 220 221 221 221 219 218 218 217 216 214 213 213 213 213 211 209 206 204 200 194 189 186 188 190 190 190 191 194 197 202 207 210 214 218 225 235 248 263 271 268 253 236 220 210
223 221 216 214 212 211 212 213 211 209 208 208 208 208 208 207 205 204 203 202 200 198 197 197 197 196 197 197 199 200 200 200 202 204 206 208 211 214 218 219 219 218 218 219 219 218 218 218 218 217 215 213 211 212 214 216 217 216 211 204 196 190 187 186 191 196 200 201 202 205 208 212 215 218 221 225 230 238 248 256 256 246 228 211 196 191
218 215 212 211 209 209 210 210 210 209 209 208 207 207 206 203 200 198 197 196 195 194 195 196 196 196 197 197 198 199 199 199 201 203 205 207 210 215 218 218 217 216 216 216 215 215 215 216 216 215 212 210 209 209 210 213 214 214 209 200 192 189 188 188 192 198 202 201 201 203 207 209 212 215 218 223 228 234 240 243 240 228 214 200 189 188
212 208 208 207 207 208 210 209 208 207 208 207 207 206 204 200 196 193 192 191 190 191 194 196 196 196 196 197 197 198 198 198 200 202 204 205 209 213 216 216 214 213 213 213 212 212 213 214 214 213 210 208 206 205 206 207 207 206 202 194 189 189 192 193 193 194 196 196 196 197 200 201 202 205 209 214 219 226 231 232 229 221 212 200 191 186
211 209 207 205 205 208 210 210 208 205 205 205 204 202 199 195 191 189 189 188 187 188 192 195 196 196 196 196 196 196 197 198 200 202 203 204 207 211 214 213 212 211 211 210 210 211 212 212 212 211 209 206 204 202 202 202 202 199 195 190 188 189 192 192 193 194 195 195 195 195 195 195 196 199 204 210 216 223 227 228 227 223 215 203 192 184
212 212 210 205 205 207 210 211 207 204 202 200 198 196 193 190 187 185 184 185 185 187 190 193 195 197 197 196 195 195 196 198 201 203 204 205 206 209 210 210 209 209 209 209 210 210 211 211 211 210 208 206 203 202 201 201 200 198 194 190 189 189 191 192 193 195 197 198 198 198 197 196 198 201 205 210 216 222 227 229 229 225 217 204 192 180
210 209 206 203 203 206 208 208 205 201 196 192 189 187 185 184 182 181 182 183 184 185 187 190 194 196 197 196 195 194 195 198 201 204 204 205 205 206 207 207 208 209 209 209 209 209 209 209 210 209 208 206 205 203 202 202 202 200 197 193 191 191 192 193 194 195 198 199 200 200 200 201 202 205 207 211 216 223 228 229 229 224 216 204 193 182
197 197 196 195 198 202 203 202 200 197 192 186 180 176 176 176 176 178 180 182 183 183 184 186 190 193 195 195 193 192 192 195 198 199 200 201 201 203 204 205 206 207 208 207 207 207 207 208 209 209 208 207 206 205 204 204 203 203 201 198 196 195 195 195 195 196 198 199 200 201 202 203 205 206 208 211 216 221 226 227 226 222 214 204 194 183
184 184 188 191 192 192 190 191 191 190 188 184 177 172 169 167 168 170 173 176 179 181 182 182 184 188 191 192 191 190 190 192 193 194 193 194 195 197 199 201 204 205 205 205 204 204 205 207 208 209 208 208 207 206 206 205 205 204 203 202 201 200 198 197 197 198 199 199 200 201 202 203 205 207 208 211 214 218 222 223 223 218 208 198 190 182
183 181 183 187 188 185 178 178 181 183 183 182 178 173 168 163 160 159 161 164 170 176 179 180 180 181 184 186 186 186 187 189 190 191 191 191 192 194 196 199 201 203 203 202 201 202 204 206 208 209 209 208 207 207 207 206 206 205 204 204 204 203 202 201 200 200 200 201 201 201 202 203 204 206 208 211 214 218 221 225 229 221 200 187 183 182
180 180 179 178 180 180 177 175 176 177 178 177 175 173 169 165 161 157 154 154 160 166 171 176 178 177 176 177 179 182 183 183 184 185 187 189 191 193 195 197 200 200 199 198 199 200 203 206 208 210 210 209 208 207 207 207 206 205 205 204 204 204 203 203 202 201 202 203 203 203 203 204 206 208 211 213 217 221 225 232 239 229 202 184 179 182
178 178 177 175 173 172 173 174 175 175 174 171 168 169 173 171 167 162 156 153 154 158 163 169 174 175 174 173 174 177 178 178 177 179 181 184 186 188 190 191 193 194 193 194 195 198 201 205 209 210 210 209 208 207 206 206 206 206 206 205 205 204 203 203 202 202 201 203 204 205 205 207 208 210 212 216 220 223 228 236 242 232 207 188 180 180
178 177 174 172 171 170 168 168 168 169 171 171 171 174 177 176 172 166 160 155 156 160 163 165 168 170 173 174 174 174 175 175 176 177 178 180 183 185 186 186 187 188 189 191 193 197 201 205 209 211 210 209 207 206 205 206 206 206 207 207 206 206 205 205 205 204 203 203 204 205 207 209 210 213 215 219 222 225 230 237 239 226 205 190 183 181
173 171 169 169 172 174 172 169 168 172 177 180 180 179 175 172 169 164 157 155 159 164 166 164 164 165 169 172 174 176 175 174 174 175 177 180 184 187 188 186 187 189 191 192 194 198 202 206 208 210 209 207 205 204 203 204 205 206 207 208 209 209 208 208 208 207 207 206 206 207 208 210 212 214 217 221 224 227 231 236 231 216 201 192 187 185
171 169 170 174 178 179 178 177 177 180 183 183 180 176 171 167 165 161 155 152 157 162 163 161 160 162 165 169 173 176 176 174 172 171 173 178 183 188 189 187 188 190 193 194 196 201 206 208 208 208 206 203 202 201 201 202 203 205 207 208 209 210 211 210 210 210 209 208 208 209 210 211 212 214 217 221 225 228 231 231 222 208 199 194 190 186
177 176 178 182 184 185 185 183 183 183 182 179 175 169 164 164 163 161 158 155 156 157 156 152 152 157 165 171 174 176 177 175 172 171 172 175 180 186 188 187 186 188 193 195 198 202 206 208 208 206 203 200 199 199 199 200 201 204 206 208 209 211 211 212 211 211 210 209 209 210 211 211 212 214 216 221 225 228 229 223 212 203 198 195 190 184
185 185 187 188 188 188 188 185 184 182 179 175 172 171 169 167 165 162 159 157 156 157 159 159 158 158 167 174 176 178 179 175 173 173 173 173 177 183 187 188 186 187 192 196 200 203 205 204 203 200 199 198 197 197 197 198 200 202 205 207 209 210 211 211 211 210 209 208 208 208 210 210 211 213 216 220 224 226 223 213 204 199 196 193 188 182
192 192 193 192 191 189 186 184 183 181 177 173 172 172 172 169 165 162 160 159 161 163 166 169 170 171 171 179 180 181 182 178 174 172 172 173 177 181 186 189 190 191 193 196 200 203 204 201 197 195 194 195 195 195 195 197 199 202 204 206 207 209 209 209 209 208 207 206 206 206 207 207 208 210 212 216 220 220 214 204 198 195 193 189 184 179
197 197 197 196 193 188 184 183 181 179 176 174 172 170 168 166 164 162 163 166 168 170 171 174 176 177 178 182 184 184 184 181 177 172 170 173 177 180 184 187 190 192 194 196 199 201 200 196 193 192 192 193 193 193 194 196 198 201 203 205 206 206 207 207 206 204 204 204 204 205 205 204 205 206 208 211 213 210 203 195 191 191 190 186 181 177
197 198 198 196 191 186 184 184 183 180 177 175 172 168 165 164 164 164 168 171 175 177 176 176 178 181 181 182 184 185 185 182 177 173 172 174 177 180 183 186 188 190 193 196 198 199 195 192 190 190 191 192 192 192 193 195 197 200 202 203 204 204 204 203 202 200 200 201 201 201 200 199 200 200 202 204 203 198 191 186 186 187 186 183 179 176
197 199 199 194 188 184 186 187 185 182 178 175 171 167 165 165 166 168 171 174 177 178 179 180 182 183 183 182 184 185 185 182 176 171 172 175 178 181 184 186 188 190 192 195 197 197 193 191 190 190 191 191 191 191 192 194 196 199 200 201 202 202 201 199 197 195 194 194 194 194 193 192 193 194 195 195 191 186 181 181 183 184 183 179 175 171
199 199 197 193 189 187 188 188 186 183 180 176 171 169 169 168 169 172 175 176 177 178 181 183 185 186 189 188 188 188 187 184 179 173 169 170 179 185 185 187 189 190 192 194 195 195 192 191 191 191 191 191 190 189 190 192 195 197 199 200 201 200 199 196 193 189 187 186 186 185 185 185 186 188 188 186 182 178 177 178 181 183 180 175 168 162
201 199 195 192 192 192 190 189 187 186 184 182 179 177 176 175 174 175 176 177 177 178 179 181 182 185 189 190 190 189 188 187 185 179 172 170 183 188 186 187 188 190 193 195 194 193 192 191 191 192 192 190 189 188 189 190 193 195 198 199 200 199 197 193 188 184 181 181 180 180 180 180 182 184 184 181 178 176 176 178 180 182 180 174 165 156
204 199 195 193 194 195 194 192 189 188 187 186 184 183 181 180 178 177 176 177 176 175 176 176 174 173 178 183 184 185 188 189 188 185 180 180 186 189 188 187 187 189 194 196 195 193 192 192 192 193 192 190 188 187 187 189 191 194 197 199 200 199 196 191 185 181 179 179 179 179 179 180 181 182 182 180 177 176 176 177 179 181 181 176 168 158
210 206 201 198 198 199 200 198 195 192 189 186 183 181 180 178 175 173 172 173 172 171 169 163 156 153 162 170 176 181 188 190 190 189 186 183 182 186 189 188 186 188 192 196 196 194 192 192 193 193 192 189 186 185 187 189 190 192 195 198 200 199 196 190 184 180 178 179 179 180 180 181 181 182 181 180 178 177 177 177 178 180 182 180 174 165
217 216 212 209 207 207 208 207 204 199 194 189 184 181 178 174 169 165 164 165 167 165 160 154 151 154 162 167 173 180 186 189 191 191 190 183 175 179 188 188 187 188 190 195 195 194 193 194 194 194 192 188 185 185 187 190 191 192 194 198 200 200 195 189 183 180 179 180 181 182 182 183 183 183 182 181 180 179 179 178 178 179 182 182 179 173
219 221 222 221 218 216 215 213 209 204 199 195 191 188 184 179 171 163 160 165 168 167 163 164 165 164 166 170 178 184 186 187 189 191 192 186 176 175 185 188 187 187 189 193 194 194 194 196 196 195 193 189 185 184 185 190 192 193 195 197 200 200 195 188 183 181 181 183 183 184 184 185 185 184 184 182 182 182 181 180 179 179 182 183 182 178
215 217 221 223 222 220 217 214 209 204 200 197 196 195 193 187 177 170 170 174 174 172 171 175 175 171 173 179 183 185 186 187 188 191 192 190 181 177 185 186 186 186 186 187 191 194 195 197 198 196 193 190 186 184 184 187 190 194 196 197 199 199 195 187 183 182 184 185 186 186 187 187 187 186 185 184 184 184 183 181 180 182 184 185 184 181
208 209 212 216 217 216 213 210 206 201 198 197 197 198 198 194 189 184 183 181 177 175 179 183 184 180 175 174 176 181 186 189 191 192 192 189 184 183 185 183 183 184 182 178 182 190 197 200 200 197 194 190 187 185 186 186 187 191 196 198 200 199 194 187 185 185 187 188 188 188 188 189 188 187 186 185 184 183 183 183 185 186 187 187 186 185
198 198 199 202 206 208 207 205 201 198 196 195 196 196 198 199 198 195 191 185 180 178 183 187 185 177 167 161 161 173 192 197 196 193 192 187 185 184 182 180 182 184 181 172 167 182 201 205 203 199 195 192 189 187 188 187 186 187 191 196 199 199 195 189 187 188 190 190 190 190 190 191 190 189 187 186 184 183 184 187 190 191 190 190 189 189
193 191 191 193 196 199 201 200 197 194 193 193 193 194 195 197 199 199 196 189 185 183 184 184 181 175 168 164 161 173 202 204 199 194 192 188 186 184 180 178 182 186 185 179 172 168 200 208 207 203 197 194 192 190 190 189 187 187 187 191 196 198 195 191 189 190 192 192 192 192 192 192 191 190 188 187 184 183 186 191 194 194 193 193 192 192
193 192 191 191 193 195 196 195 193 190 189 189 191 192 194 196 198 200 200 197 192 189 186 184 182 179 178 182 187 193 196 200 198 195 191 189 188 187 183 180 182 186 188 188 186 180 169 189 202 203 199 196 194 193 192 191 189 187 187 190 194 196 195 191 190 191 192 193 193 194 193 193 192 191 189 187 185 185 188 194 196 197 196 196 196 195
193 192 192 192 192 193 193 192 189 186 185 187 189 192 194 196 199 202 204 203 200 195 190 187 183 182 185 190 194 196 195 197 197 195 192 190 189 186 184 182 182 185 187 189 190 188 176 171 185 194 198 199 197 195 194 192 190 188 188 190 193 194 192 190 190 191 192 192 193 194 194 194 193 192 190 188 186 187 190 195 198 199 198 199 199 199
192 190 190 189 189 190 190 189 186 184 184 186 188 192 194 197 199 202 205 205 204 202 198 195 191 187 185 189 194 197 196 200 200 198 194 193 192 188 183 181 182 184 185 188 191 192 184 175 174 180 192 198 199 197 195 193 192 190 189 192 193 193 190 189 190 191 191 191 192 193 194 194 194 193 191 190 188 189 192 197 200 200 200 201 201 201
189 187 187 186 186 186 186 186 185 184 184 186 189 192 195 197 200 202 204 205 206 206 206 206 204 200 195 191 192 195 197 204 205 202 198 197 196 192 186 184 184 184 183 187 190 187 171 170 171 173 179 191 199 200 197 195 192 191 190 193 194 194 191 190 191 192 191 191 192 192 193 193 193 192 192 191 190 190 192 197 200 201 201 202 202 203
186 185 185 186 185 185 184 184 184 184 184 187 190 193 195 198 200 202 203 204 204 205 207 210 212 213 210 207 203 202 206 210 210 205 201 200 199 196 190 189 188 187 185 187 190 189 174 165 168 173 173 178 191 200 200 196 193 192 192 194 195 195 194 192 192 193 193 193 192 192 192 193 192 192 192 191 190 190 193 197 201 202 202 202 203 204
184 185 186 188 188 187 186 186 185 185 185 187 190 193 195 197 199 201 202 203 203 204 205 208 211 214 216 216 216 216 218 218 214 208 204 203 202 200 194 193 193 191 189 188 189 189 183 168 165 170 175 178 185 193 197 196 194 193 194 195 196 197 196 194 193 194 195 195 194 193 193 193 192 192 191 190 189 190 193 197 201 204 204 203 203 204
185 186 189 190 191 191 190 188 187 187 186 187 189 191 194 196 198 199 200 201 202 204 205 206 208 210 212 214 217 221 224 223 218 211 207 206 205 202 198 196 195 195 194 193 191 187 182 175 171 175 183 188 189 190 191 192 193 195 196 196 196 198 197 196 195 195 197 197 196 194 194 194 194 192 190 189 188 189 191 196 201 203 203 203 203 203
188 189 191 192 193 193 193 191 190 189 188 187 188 190 192 193 195 196 198 199 201 203 205 205 207 208 209 210 212 216 220 222 221 217 212 210 207 205 202 198 197 197 198 197 194 190 187 185 184 183 182 184 186 187 189 190 191 192 193 194 196 199 200 198 197 197 198 198 197 195 195 195 195 193 191 189 188 188 190 192 195 198 199 199 198 198
193 194 194 195 196 196 196 194 192 190 188 187 187 188 189 189 190 192 195 197 199 201 204 205 206 207 207 208 209 211 214 217 219 219 216 214 211 208 205 202 200 199 197 196 195 193 192 192 193 191 188 184 181 181 184 188 190 189 188 189 194 199 200 199 198 198 200 200 198 196 196 196 196 195 194 192 191 191 191 192 193 194 195 195 193 191
197 196 196 196 196 196 196 195 193 190 187 184 183 183 184 185 185 186 190 193 195 198 200 202 202 203 204 205 207 208 209 210 211 213 214 215 213 211 208 207 205 202 198 195 195 195 194 194 194 193 190 186 182 181 183 186 188 187 186 188 193 197 198 198 198 199 200 201 200 198 197 196 196 197 196 195 194 193 193 194 195 196 197 198 195 191
199 197 196 195 194 195 196 195 192 189 186 183 180 180 182 183 184 184 184 186 188 192 195 196 195 194 195 198 202 205 207 207 206 206 207 211 212 211 209 209 208 205 200 196 195 195 196 196 194 192 190 186 181 179 181 186 187 188 188 191 192 193 195 198 199 200 200 202 202 200 198 198 198 197 197 197 196 195 195 196 197 198 199 201 201 199
200 199 196 194 193 194 194 192 189 185 183 180 179 180 183 185 185 185 184 183 184 187 190 191 191 189 186 187 191 196 200 203 205 204 203 205 209 210 210 210 210 208 204 198 194 194 196 196 196 196 193 189 184 179 178 181 184 187 190 192 189 186 187 196 199 200 201 202 202 201 200 199 199 198 198 199 199 198 196 197 198 200 202 204 205 205
199 197 195 194 193 193 191 188 185 183 181 179 179 181 183 186 187 186 185 183 184 185 185 187 187 186 182 180 182 186 191 196 199 200 200 202 205 208 210 210 211 211 208 201 196 193 193 194 196 198 197 193 188 184 180 180 182 186 190 193 192 189 189 193 195 197 199 201 202 202 201 200 200 200 200 201 202 201 200 200 200 201 203 205 207 208
196 194 193 192 191 189 186 184 183 182 181 181 181 182 183 185 187 186 185 183 183 182 182 183 181 177 174 175 178 181 184 187 191 193 195 198 201 205 208 209 210 211 210 207 203 198 193 192 193 196 196 194 191 188 184 182 183 185 189 193 195 196 197 196 194 194 196 199 200 201 201 201 201 201 201 201 202 203 204 204 204 204 205 206 207 208
193 191 189 189 187 185 184 184 183 182 181 181 182 183 184 185 186 186 186 184 182 180 181 182 179 175 172 173 175 176 178 182 185 189 192 195 198 201 205 207 208 209 209 208 207 206 203 200 196 193 191 190 191 192 190 188 185 185 188 191 194 197 199 199 197 195 195 196 198 199 199 200 201 202 202 202 203 204 206 207 207 208 208 208 208 209
190 188 186 185 184 184 184 183 181 180 180 181 183 184 185 184 184 185 186 185 183 180 179 180 180 179 177 176 175 174 174 177 181 186 189 192 195 197 200 203 205 206 206 205 204 206 208 209 206 199 191 186 186 190 194 194 191 188 187 190 192 195 198 199 199 198 196 196 197 197 197 198 201 203 204 204 205 206 208 209 210 211 211 211 211 211
190 188 186 184 183 182 181 181 180 179 179 181 183 185 185 185 184 184 184 184 182 179 176 177 178 179 178 178 178 178 178 177 179 182 186 189 192 194 195 197 199 201 202 202 202 203 205 208 209 207 201 194 189 188 192 194 195 194 192 191 192 194 198 200 201 199 198 198 197 197 196 198 199 201 203 204 205 208 209 210 211 212 213 213 213 213
191 188 186 184 182 181 181 181 181 180 180 180 181 183 185 185 185 185 184 183 181 179 177 177 178 176 175 176 179 180 180 179 179 181 183 186 188 189 190 192 194 194 195 197 199 201 203 206 209 209 209 205 199 194 193 195 197 198 197 195 195 195 198 200 200 200 199 199 199 199 198 200 201 202 202 202 205 208 211 211 212 213 213 214 214 214
191 189 187 185 184 183 183 183 182 181 181 180 180 182 183 184 185 186 186 184 182 181 181 180 179 175 172 173 175 176 177 176 176 177 180 184 185 184 184 186 187 186 185 187 190 194 197 201 206 209 210 210 208 203 199 196 197 198 198 198 199 198 198 198 199 199 200 200 200 200 201 202 204 204 204 204 206 209 212 213 213 213 214 214 214 213
189 189 188 187 186 186 185 184 183 183 182 181 181 181 181 182 184 185 185 184 183 183 183 183 180 177 174 173 174 175 176 175 174 174 178 181 182 181 180 181 181 177 173 171 174 178 181 187 198 208 212 210 210 211 208 201 196 194 194 198 200 200 199 197 198 198 199 200 201 201 201 203 205 206 207 207 207 209 213 216 216 215 213 214 214 213
Height
752 752 752 752 753 754 755 755 757 758 759 761 762 763 765 766 766 767 767 769 772 776 779 782 784 785 787 788 789 790 791 793 795 797 799 800 802 803 804 805 806 806 807 808 808 809 810 811 811 812 812 813 813 814 815 815 816 817 818 818 819 819 820 820 821 821 821 821 822 822 822 823 823 824 824 825 825 826 827 827 828 828 828 828 829 829
750 750 750 750 751 752 752 753 754 755 756 757 759 760 761 763 764 765 766 768 770 773 777 780 782 783 785 787 788 789 790 792 794 796 798 799 801 802 804 804 805 805 806 807 808 808 809 810 810 811 811 812 812 813 813 814 815 816 817 818 818 819 820 820 820 820 821 821 821 821 822 822 823 823 824 824 825 826 826 827 827 828 828 828 828 829
748 748 748 748 749 749 749 750 750 751 752 753 754 756 758 759 761 763 765 767 769 772 775 778 780 782 784 785 786 787 789 791 793 795 797 798 800 802 803 804 804 805 805 806 807 808 808 809 810 810 810 811 811 812 812 813 814 815 816 817 818 819 819 819 819 820 820 820 821 821 821 822 822 823 823 824 825 825 826 826 827 827 828 828 828 828
745 745 745 746 746 747 747 747 748 749 750 751 752 753 755 757 758 760 763 765 768 771 774 777 778 780 782 784 785 786 788 789 791 793 795 797 799 801 802 803 803 804 804 805 806 807 808 809 809 810 810 810 810 811 811 812 813 814 815 815 817 818 818 819 819 820 820 820 820 820 820 821 822 823 823 823 824 824 825 825 826 827 827 828 828 828
743 743 743 744 745 745 746 746 747 748 749 750 751 752 753 754 756 758 761 764 766 769 773 775 777 779 781 782 783 785 786 788 790 792 794 796 798 799 801 802 802 803 804 804 805 806 807 808 809 809 809 809 810 810 811 811 812 813 814 815 816 817 817 818 818 819 819 819 819 820 820 821 822 822 822 823 823 824 824 825 826 826 827 827 828 828
742 743 743 744 745 745 746 746 747 748 748 749 750 750 751 752 754 756 759 763 765 767 770 773 776 778 779 781 782 783 785 786 788 790 793 794 796 798 799 800 801 802 803 804 805 806 806 807 808 808 809 809 809 810 810 811 812 812 813 814 815 816 816 817 817 818 818 818 819 819 820 820 821 821 822 822 823 823 824 825 825 826 826 827 827 828
741 742 743 744 744 745 745 746 746 747 748 748 749 750 750 751 752 754 757 760 762 765 768 771 774 777 778 780 781 782 783 785 787 789 791 793 795 796 798 799 800 801 802 803 804 805 806 807 807 808 808 808 809 809 810 810 811 812 813 813 814 815 815 816 816 817 817 818 818 819 819 820 820 821 821 822 822 823 823 824 825 826 826 826 827 827
740 741 742 742 743 743 744 745 746 746 747 747 748 748 749 750 752 753 755 757 760 762 766 769 773 776 778 779 780 781 782 784 786 788 790 792 793 795 796 798 799 800 801 802 803 804 805 806 806 807 807 808 808 809 809 810 811 811 812 813 814 814 815 815 816 816 817 817 818 818 819 819 820 820 821 821 822 822 823 824 825 825 826 826 826 827
738 739 740 740 740 742 743 744 745 746 747 747 747 747 747 749 750 753 755 756 758 760 763 766 770 774 776 778 778 779 781 783 785 786 788 790 792 793 795 796 798 799 800 801 802 803 804 805 805 806 806 807 807 808 809 809 810 811 812 812 813 814 814 815 815 816 816 817 817 818 818 819 819 820 820 820 821 822 823 823 824 825 825 826 826 827
736 737 738 739 740 740 742 743 745 746 747 748 748 747 747 747 749 751 753 755 756 758 761 764 768 771 774 776 777 778 780 782 783 785 786 788 790 792 793 795 796 797 799 800 801 802 803 804 805 805 805 806 807 807 808 808 809 810 811 812 812 813 814 814 815 815 816 816 817 817 818 818 818 819 820 820 821 821 822 823 824 825 825 825 826 827
735 736 737 738 739 740 741 742 744 745 746 748 748 749 749 748 749 750 751 753 755 758 761 763 766 769 771 773 775 777 779 781 783 784 785 787 789 790 792 793 795 796 797 799 800 801 802 803 804 804 805 805 806 806 807 808 809 809 810 811 812 812 813 814 814 815 815 816 816 816 817 817 818 818 819 820 820 821 822 823 824 824 824 825 825 826
735 736 737 738 739 740 741 742 743 744 746 747 749 750 751 750 750 750 750 751 753 757 760 763 765 767 769 771 773 776 778 779 781 782 784 786 788 789 791 792 793 795 796 797 799 800 801 802 803 803 804 804 805 805 806 807 808 809 809 810 811 812 812 813 813 814 814 815 815 816 816 817 817 818 818 819 820 821 822 822 823 824 824 824 825 825
733 735 736 737 738 739 740 741 743 744 745 746 747 748 748 749 750 750 750 750 753 756 759 762 765 767 768 769 771 774 776 777 778 780 782 784 786 787 789 790 792 793 795 796 798 799 800 801 801 802 803 803 804 805 805 806 807 808 809 809 810 811 811 812 813 813 814 814 815 815 815 816 817 817 818 818 819 820 821 822 823 823 823 824 824 824
733 734 735 736 737 737 738 739 740 742 743 743 743 743 744 746 748 749 750 752 754 757 760 762 764 766 768 770 771 772 773 775 777 779 781 782 784 785 787 789 790 792 793 795 796 797 798 799 800 801 802 803 803 804 805 805 806 807 808 808 809 810 811 811 812 812 813 813 814 814 815 815 816 817 817 818 819 820 821 821 822 823 823 823 823 824
731 732 733 734 735 735 736 737 738 738 739 740 742 743 744 746 747 748 749 752 755 758 760 762 764 766 768 769 771 772 772 773 775 778 780 782 783 785 786 787 789 790 792 793 795 796 797 798 799 800 801 802 803 803 804 805 805 806 807 808 808 809 810 810 811 811 812 813 813 813 814 815 815 816 817 818 818 819 820 821 821 822 822 822 823 823
729 730 731 732 732 733 733 734 735 737 738 740 741 742 743 745 746 747 748 751 755 758 760 763 765 766 768 769 770 770 771 772 774 776 778 780 782 784 785 786 788 790 791 793 794 795 796 797 798 799 800 801 802 803 803 804 805 805 806 807 807 808 809 809 810 810 811 812 812 813 813 814 815 815 816 817 818 819 820 820 821 821 822 822 822 823
728 729 729 729 730 730 731 732 733 735 737 738 739 740 742 743 744 745 748 751 754 758 760 761 763 766 768 770 770 770 770 771 773 775 777 779 781 783 784 785 786 788 790 791 793 794 795 796 797 798 799 800 801 802 803 803 804 805 805 806 806 807 808 808 809 809 810 811 811 812 812 813 814 815 815 816 817 818 819 820 820 820 821 821 822 822
727 727 727 728 728 729 729 731 732 733 734 736 738 739 741 742 743 745 747 750 753 756 758 760 761 763 765 768 769 769 769 770 772 774 776 778 780 781 783 784 785 787 789 790 792 793 794 795 796 798 798 799 800 801 802 802 803 804 804 805 806 806 807 807 808 808 809 810 810 811 812 813 813 814 815 816 817 818 818 819 820 820 820 821 821 822
726 726 726 726 726 727 728 728 729 730 731 733 735 738 740 741 742 744 746 749 752 754 756 758 759 760 762 763 765 766 767 769 770 773 776 778 779 780 782 783 785 786 788 789 791 792 793 795 796 797 798 798 799 800 801 802 802 803 804 804 805 805 806 806 807 807 808 808 809 810 811 812 813 814 814 815 816 817 818 818 819 820 820 820 821 822
724 724 724 724 725 726 726 726 726 727 728 730 732 735 737 739 741 743 746 748 751 753 754 755 757 759 760 761 762 764 766 768 770 772 775 777 778 779 781 782 784 785 787 788 790 791 793 794 795 796 797 798 798 799 800 801 801 802 803 803 804 804 805 805 806 806 807 808 808 809 810 811 812 813 814 815 816 816 817 818 819 819 820 820 821 821
722 722 722 723 723 724 725 725 725 725 726 728 731 733 734 736 739 742 744 747 750 752 753 754 755 757 758 759 760 762 764 766 768 771 774 776 778 779 780 781 783 784 786 787 789 790 792 793 794 795 795 796 797 798 799 800 800 801 802 803 803 803 804 804 805 805 806 807 808 809 810 811 812 813 814 814 815 816 817 818 818 819 820 820 821 821
720 720 721 721 722 722 722 723 724 725 726 728 729 730 732 733 736 739 742 745 747 750 751 753 754 755 756 757 759 761 763 764 766 768 771 775 777 778 779 780 782 783 784 786 788 789 790 792 793 793 794 795 796 797 798 799 800 800 801 802 802 803 803 804 804 805 806 806 807 808 809 810 811 812 813 814 815 816 817 817 818 818 819 820 821 821
719 719 720 720 721 721 721 722 724 725 726 727 728 728 729 730 732 734 738 741 744 747 749 751 753 754 756 757 759 761 763 764 765 767 769 773 775 776 778 779 781 782 783 785 786 788 789 790 791 792 793 795 795 796 797 798 799 800 800 801 801 802 802 803 803 804 805 806 807 808 809 810 811 812 813 814 815 815 816 817 818 818 819 820 820 821
718 719 719 720 720 720 721 722 723 724 725 727 728 730 730 731 732 733 735 738 741 744 746 749 751 754 756 758 759 761 762 764 765 766 768 770 773 774 776 778 780 781 783 784 785 787 788 789 790 791 792 793 794 795 796 797 798 799 799 800 800 801 802 802 803 804 805 806 807 808 809 810 811 812 812 813 814 815 816 816 817 818 819 819 820 820
717 718 718 719 719 720 720 721 722 724 725 727 729 731 732 733 734 735 736 738 741 743 745 748 752 754 756 757 759 760 761 763 764 765 767 769 771 773 775 776 778 780 782 783 784 786 787 788 789 790 791 792 793 795 795 796 797 798 799 799 800 800 801 801 802 803 804 805 806 807 808 810 810 811 812 813 814 814 815 816 817 818 818 819 820 820
715 717 718 718 719 720 720 721 722 724 725 727 729 730 732 733 734 735 737 738 740 743 745 748 751 753 755 756 758 759 760 761 763 764 766 767 770 772 774 776 778 779 781 782 783 785 786 787 788 789 790 791 792 794 795 796 797 798 798 799 799 800 800 801 802 803 804 805 806 807 808 809 810 811 812 812 813 814 815 815 816 817 818 818 819 820
713 715 717 718 719 719 720 721 722 723 725 727 728 730 731 733 734 736 737 738 739 741 744 748 750 753 755 756 757 757 758 760 762 763 764 766 768 770 773 775 777 779 780 781 782 784 785 786 787 788 789 790 791 792 794 795 796 797 798 798 798 799 799 800 801 802 803 804 806 807 808 809 810 810 811 812 813 813 814 815 816 817 817 818 818 819
711 713 715 716 718 719 720 720 721 722 723 725 727 728 730 732 734 735 736 736 738 740 743 745 748 751 753 755 755 756 758 759 760 762 763 765 767 769 771 773 776 778 779 780 782 783 784 785 786 787 788 789 790 791 792 794 795 796 797 798 798 798 799 800 800 802 803 804 805 806 807 808 809 810 810 811 812 813 813 814 815 816 816 817 818 818
709 711 713 715 717 718 719 720 721 721 722 724 725 726 728 730 732 733 733 735 737 740 742 744 746 748 750 753 754 756 758 758 759 760 762 765 767 768 770 772 775 776 778 780 782 783 784 784 785 786 787 788 789 790 791 792 794 795 796 797 797 798 798 799 800 801 802 803 805 806 807 808 809 809 810 811 811 812 813 814 814 815 815 816 817 818
708 710 711 714 716 718 719 720 721 721 722 723 723 725 726 728 730 731 732 733 736 738 740 742 744 746 748 752 755 757 758 757 758 759 761 764 765 767 769 771 773 774 775 778 781 783 783 783 784 785 786 787 788 789 790 791 792 794 795 796 797 797 798 798 799 800 802 803 804 805 806 807 808 809 809 810 811 812 813 813 813 814 815 815 816 817
706 708 709 711 714 716 718 719 720 721 721 722 723 723 725 726 728 730 731 732 734 736 738 740 742 744 746 749 753 755 754 754 755 757 759 762 763 765 766 769 771 772 773 775 778 780 782 782 783 783 785 786 787 788 789 790 791 792 793 795 795 796 797 798 799 800 801 802 803 805 806 807 808 808 809 810 810 811 812 812 812 813 814 815 816 817
704 705 707 709 711 713 715 717 718 719 720 721 722 722 723 725 726 728 729 730 732 734 736 738 740 741 743 745 746 748 748 750 752 755 758 760 762 763 764 766 768 770 771 772 773 775 777 779 780 782 783 785 786 787 788 789 790 791 792 793 794 795 796 797 798 799 800 802 803 804 805 806 807 808 808 809 810 810 811 811 811 812 813 814 815 816
703 704 705 707 709 711 713 714 715 716 717 718 719 721 722 723 725 726 727 729 731 733 735 737 738 740 742 743 744 745 746 747 750 753 756 759 760 761 763 765 767 768 770 772 772 773 773 775 777 779 782 783 784 785 787 788 789 790 791 792 793 794 795 796 797 798 800 801 802 803 805 805 806 807 808 808 809 810 810 810 811 812 813 813 814 815
702 703 704 705 707 708 710 711 712 713 714 715 717 718 720 721 723 724 726 728 729 731 733 734 736 738 740 742 744 745 746 747 749 752 755 757 758 759 761 763 765 766 769 770 771 772 772 773 774 777 779 781 783 784 785 787 788 789 790 791 792 793 794 795 796 797 799 800 801 802 804 804 805 806 807 808 808 809 809 810 810 811 812 813 814 815
701 702 703 704 705 707 708 709 710 710 711 713 714 716 717 719 721 722 724 726 728 730 731 732 733 735 737 740 742 743 745 746 748 751 753 754 755 756 759 760 762 764 766 768 770 770 771 772 773 775 777 780 782 783 784 785 787 788 789 790 791 792 793 794 795 796 798 799 800 801 802 803 804 805 806 807 808 808 809 809 809 810 811 812 813 814
700 701 702 703 704 705 706 707 707 708 708 710 711 713 715 717 719 721 723 725 727 729 730 732 733 734 735 737 739 740 742 744 746 749 750 752 753 754 757 758 759 761 763 766 768 769 770 771 772 773 775 778 780 781 782 784 785 787 788 789 790 791 792 793 794 796 797 798 799 800 801 802 803 804 805 806 807 808 808 808 809 809 810 811 812 813
699 700 700 702 703 704 704 705 705 705 705 707 709 711 713 715 717 719 721 724 726 727 729 731 732 734 735 737 738 739 740 743 745 746 748 749 751 752 754 755 757 759 761 763 765 767 769 770 772 773 774 775 777 778 780 782 784 785 787 788 789 790 791 792 794 795 796 797 798 799 800 801 802 803 804 805 806 807 808 808 808 809 810 810 812 813
697 698 699 700 701 702 703 703 703 703 703 704 706 708 710 713 715 717 720 722 724 726 728 729 731 733 734 736 738 739 741 742 744 745 746 748 749 751 753 754 755 757 758 760 762 764 766 768 770 772 773 773 774 775 777 779 782 783 785 786 788 789 790 791 793 794 795 796 797 798 800 800 801 802 803 804 805 806 807 807 808 808 809 810 811 812
696 696 697 698 700 700 701 702 702 702 702 702 704 706 708 711 713 716 718 720 722 724 726 728 730 732 733 735 737 738 740 741 743 744 745 746 748 749 751 752 754 755 757 759 760 762 764 765 766 768 770 771 773 775 776 777 779 781 783 785 787 788 789 790 791 793 794 795 796 798 799 799 800 801 802 803 803 804 805 806 807 807 808 809 810 811
694 695 695 697 698 699 700 701 701 701 701 702 703 705 707 710 712 715 717 719 721 723 725 727 728 730 732 734 736 737 739 740 742 743 744 745 746 748 749 750 752 754 756 758 759 760 762 763 764 765 767 769 771 773 774 776 777 779 781 783 785 786 787 789 790 792 793 794 795 796 797 798 799 800 801 801 802 803 804 805 805 806 807 808 808 809
693 693 694 696 697 699 700 700 700 700 701 701 702 704 706 708 711 713 715 717 719 721 723 725 727 729 731 733 735 736 738 739 740 742 743 744 745 747 748 749 751 753 754 756 758 759 760 762 763 765 766 767 769 770 772 773 775 777 779 780 781 782 784 787 789 790 792 793 794 795 796 797 798 799 800 800 801 802 803 804 805 805 806 807 807 808
692 692 693 695 696 698 698 699 699 700 701 701 702 704 705 707 709 711 713 715 717 719 721 723 725 728 730 732 733 735 736 737 739 740 741 743 744 746 747 748 750 751 753 755 756 758 759 760 762 763 764 766 768 769 771 772 774 775 777 778 779 781 784 786 788 789 790 791 793 794 795 796 797 798 799 800 800 802 803 803 804 805 805 806 807 807
690 691 692 693 694 695 696 697 699 700 701 702 702 703 704 706 707 709 711 713 715 717 719 721 723 725 728 730 731 733 734 736 737 739 740 742 743 745 746 747 749 750 752 753 755 757 758 759 761 762 763 764 766 767 769 771 773 774 775 776 778 780 783 784 785 787 788 790 791 792 793 795 795 797 798 799 800 801 802 803 803 804 805 805 806 807
689 690 691 691 692 693 695 697 698 699 700 701 702 703 704 705 707 709 710 712 713 715 717 720 722 724 726 728 729 731 733 734 736 737 739 740 742 744 745 746 748 749 750 752 753 755 757 759 760 761 762 763 765 766 767 769 771 773 774 775 776 777 778 779 781 784 786 788 790 791 792 793 795 796 797 798 799 800 801 801 802 803 804 805 805 806
688 688 689 690 691 693 694 696 697 698 699 699 700 702 703 705 707 708 709 711 712 714 716 718 720 723 725 726 728 729 731 733 734 736 738 739 741 743 744 745 747 748 750 751 752 753 755 757 758 760 761 763 764 765 766 767 769 770 772 774 775 776 776 777 779 781 784 786 788 789 791 792 794 795 796 797 798 798 799 800 801 802 803 804 805 805
686 687 688 689 690 692 693 694 695 696 698 699 700 701 703 704 706 707 708 710 711 713 715 716 718 720 722 724 725 727 729 731 733 734 736 738 740 741 743 745 746 748 749 750 751 753 754 755 756 758 760 762 764 764 765 766 767 769 771 772 774 775 777 778 779 780 781 783 785 787 789 791 792 793 794 795 796 797 798 799 800 801 802 803 804 805
683 685 686 687 689 690 691 693 694 695 696 698 699 700 702 704 705 707 708 709 710 712 713 715 717 718 719 721 723 725 727 729 731 733 735 736 738 740 742 743 745 747 748 750 751 752 754 755 756 757 759 760 762 763 764 765 766 767 769 770 772 774 775 776 777 779 780 782 783 785 787 789 791 791 792 793 794 796 797 798 798 800 800 802 803 803
681 683 684 686 688 689 690 692 693 694 695 696 698 699 701 703 705 706 707 708 710 711 713 714 715 717 718 719 721 722 724 726 728 731 733 735 737 739 740 742 744 746 747 749 750 752 753 755 756 756 757 758 759 761 762 764 765 766 767 768 770 772 773 774 776 778 779 781 782 784 785 787 788 789 790 792 793 794 795 796 797 798 799 800 801 802
679 681 683 684 686 687 689 690 691 692 693 694 696 698 700 702 704 705 706 707 708 710 711 712 713 715 716 718 720 721 723 725 727 729 731 733 735 737 739 741 743 745 746 748 750 751 753 754 755 756 757 758 758 759 760 762 763 765 766 767 768 770 771 773 775 777 778 780 781 783 784 785 786 787 788 790 791 792 793 794 795 797 798 799 800 801
678 679 681 682 684 685 686 687 689 690 691 693 694 696 699 701 703 705 705 706 707 708 709 710 711 713 714 716 718 720 722 724 726 728 730 731 733 735 737 739 741 743 745 748 749 751 753 754 755 756 756 757 758 758 759 760 762 764 765 766 767 768 770 771 773 775 777 778 780 782 783 785 786 787 788 789 790 791 792 793 794 795 796 797 798 799
675 677 679 680 681 683 684 685 687 688 689 691 692 695 697 700 702 704 705 706 706 707 708 709 710 711 712 714 716 718 720 721 724 726 728 730 731 733 735 737 739 742 744 747 749 750 752 754 755 755 756 756 757 757 758 759 760 762 764 765 766 767 768 770 772 773 775 777 778 780 782 783 785 786 787 788 788 790 791 791 792 793 795 796 797 798